Tracking 28518 objects as of 2-Mar-2024
HD Live streaming from Space Station
objects crossing your sky now

STARLINK-5270

Track STARLINK-5270 now!
10-day predictions
STARLINK-5270 is classified as:


NORAD ID: 55299
Int'l Code: 2023-010AG
Perigee: 577.2 km
Apogee: 581.2 km
Inclination: 70.0 °
Period: 96.1 minutes
Semi major axis: 6950 km
RCS: Unknown
Launch date: January 19, 2023
Source: United States (US)
Launch site: AIR FORCE WESTERN TEST RANGE (AFWTR)
Your satellite tracking list
Your tracking list is empty




NASA's NSSDC Master Catalog

Two Line Element Set (TLE):
1 55299U 23010AG  24061.46447084 -.00000623  00000-0 -44428-4 0  9995
2 55299  69.9988  85.6468 0002911 269.9969  90.0856 14.98325851 63576
Source of the keplerian elements: AFSPC